ATS 5 AKM

基本信息
目录编号:
21052
目录名称:
ATS 5 AKM
国际标识:
1969-069C
轨道中心:
EARTH
物体状态:
在轨
发射日期:
1969-08-12 UTC
国别:
美国 (US)
轨道信息
数据来源: 国际轨道数据
星历时间: 2026-07-14T05:29:45+0800
半长轴: 42761.348km
偏心率: 0.0128882
轨道倾角: 0.512°
近地点辐角: 312.309°
升交点赤经: 270.349°
平近点角: 126.514°
近地点: 35832.094km
远地点: 36934.328km
周期: 1466.685分钟
每日圈数: 0.981806
详细信息
发射场:
AFETR
轨道高度:
HEO
数据来源:
AOE Integration Group
参考系:
TEME
时间系统:
UTC
历元类型:
SGP4
2D轨道图
3D轨道图
轨道高度分析图
轨道倾角分析图
轨道综合分析图
查看轨道综合分析图